Regional Weather Roundup
Issued by NWS

Home | Current Version | Previous Version | Graphics & Text | Print | Product List | Glossary On
Versions: 1 2 3 4 5 6 7 8 9 10 11 12 13 14 15 16 17 18 19 20 21 22 23 24 25 26 27 28 29 30 31 32 33 34 35 36 37 38 39 40 41 42 43 44 45 46 47 48 49 50
000
ASUS43 KIND 211509
RWRIN

WEATHER ROUNDUP FOR INDIANA
NATIONAL WEATHER SERVICE INDIANAPOLIS IN
1100 AM EDT THU AUG 21 2014

NOTE: "FAIR" INDICATES FEW OR NO CLOUDS BELOW 12,000 FEET WITH NO
SIGNIFICANT WEATHER AND/OR OBSTRUCTIONS TO VISIBILITY.

* - STATION DOES NOT REPORT WEATHER SUCH AS PRECIPITATION OR FOG.

+ - STATION NOT QUALITY CONTROLLED BY THE NATIONAL WEATHER SERVICE.
    USE DATA WITH CAUTION...ESPECIALLY DEWPOINT AND RELATIVE
    HUMIDITY OBSERVATIONS.

INZ001>003-010>013-019-020-211600-
NORTHWEST INDIANA

CITY           SKY/WX    TMP DP  RH WIND       PRES   REMARKS
GARY /AIRPORT/ LGT RAIN  73  72  94 S7        29.96F
KNOX *+        CLOUDY    71  68  91 CALM      29.98F
LA PORTE +     LGT RAIN  69  69 100 CALM      29.99F
MICHIGAN CITY+ LGT RAIN  70  70 100 CALM      29.99F
MONTICELLO +   LGT RAIN  71  71  97 CALM      30.01S
RENSSELAER +   CLOUDY    70  70 100 SE3       30.00F FOG
VALPARAISO     LGT RAIN  70  69  97 S6        29.98F

$$

LMZ046-743>745-211600-
SOUTHERN LAKE MICHIGAN

STATION/POSITION TIME  TEMP WIND        PRES
                       AIR  DIR/SP/G
                 (UTC) (F)  (DEG/KT/KT) (MB)
BURNS HARBOR     1400   72  240/  9/ 18   N/A
MICHIGAN CITY    1500   71  180/  6/  8   N/A

$$

INZ004-005-014>016-021>024-211600-
NORTH CENTRAL INDIANA

CITY           SKY/WX    TMP DP  RH WIND       PRES   REMARKS
GOSHEN         LGT RAIN  74  69  85 SW7       30.02F
LOGANSPORT +   LGT RAIN  70  68  94 E3        30.04S
PERU/GRISSOM   TSTM      70  70 100 VRB2      30.04S
ROCHESTER +    RAIN      72  72 100 CALM      30.04S
SOUTH BEND     CLOUDY    72  69  90 SW5       30.02S
WARSAW +       LGT RAIN  70  70 100 W3        30.03F

$$

INZ006>009-017-018-025>027-211600-
NORTHEAST INDIANA

CITY           SKY/WX    TMP DP  RH WIND       PRES   REMARKS
ANGOLA *+      PTSUNNY   75  68  78 SW7       30.03S
AUBURN +       CLOUDY    72  68  88 CALM      30.05R
FORT WAYNE     TSTM      71  69  93 W8        30.05R FOG
HUNTINGTON +   RAIN      69  69  99 S3        30.05S

$$

INZ028-029-035-036-043>045-051>053-211600-
WEST CENTRAL INDIANA

CITY           SKY/WX    TMP DP  RH WIND       PRES   REMARKS
GREENCASTLE +  CLOUDY    75  72  88 CALM      30.04S
LAFAYETTE      CLOUDY    73  71  93 CALM      30.01S
TERRE HAUTE    PTSUNNY   81  72  74 SW10      30.02S

$$

INZ030>032-037>040-046>048-054>057-064-065-211600-
CENTRAL INDIANA

CITY           SKY/WX    TMP DP  RH WIND       PRES   REMARKS
CP ATTERBURY + PTSUNNY   73  70  88 S5        30.05S
COLUMBUS       PTSUNNY   75  72  88 S6        30.05R
FRANKFORT +    CLOUDY    74  74 100 CALM      30.04S
INDIANAPOLIS   CLOUDY    73  69  87 S7        30.03R
-EAGLE CREEK   CLOUDY    74  68  81 CALM      30.04R
KOKOMO *+      CLOUDY    70  68  94 SE3       30.04S
MARION +       HVY RAIN  68  67  97 S5        30.08R
MT COMFORT *+  CLOUDY    72 N/A N/A CALM      30.07R
SHELBYVILLE    CLOUDY    74 N/A N/A S8        30.05R
ZIONSVILLE +   CLOUDY    72  68  88 SE5       30.06R

$$

INZ033-034-041-042-049-050-058-059-211600-
EAST CENTRAL INDIANA

CITY           SKY/WX    TMP DP  RH WIND       PRES   REMARKS
MUNCIE         TSTM      70  67  90 N7        30.08S VSB 3/4

$$

INZ060-061-067>069-081>083-085>088-211600-
SOUTHWEST INDIANA

CITY           SKY/WX    TMP DP  RH WIND       PRES   REMARKS
EVANSVILLE     MOSUNNY   82  74  76 SW10      30.07R
WASHINGTON +   PTSUNNY   78  74  87 SW8       30.05R

$$

INZ062-063-066-070>080-084-089>092-211600-
SOUTH CENTRAL AND SOUTHEAST INDIANA

CITY           SKY/WX    TMP DP  RH WIND       PRES   REMARKS
BLOOMINGTON    PTSUNNY   79  72  79 SW10      30.05R

$$



USA.gov is the U.S. government's official web portal to all federal, state and local government web resources and services.